Weather in Lubokhiny

Ukraine / Volyn Oblast     51°28′48″N   24°12′26″E
temp.,
°C
wind,
m/s
gust,
m/s
humid.,
%
clouds,
%
prec.,
mm/h
press.,
hPa
HPBL,
m
11 may, tue
tue1100:00+12se5138475 0.0 1020274
03:00+10se5128416 0.0 1020229
06:00+9se514795 0.0 1020268
09:00+14se713665 0.0 1020551
12:00+18se810556 0.0 10191004
15:00+20se79490 0.0 10181246
18:00+19ese79550 0.0 10171074
21:00+13ese513670 0.0 1016316
12 may, wed
wed1200:00+12ese515800 0.0 1016334
03:00+11ese5148724 0.0 1015285
06:00+10ese4119355 0.0 1015221
09:00+15ese8117925 0.0 1014646
12:00+17ese796566 0.0 10141168
15:00+18ese79471 0.0 10131577
18:00+16ese78574 0.0 10121646
21:00+10ese612708 0.0 1012532
13 may, thu
thu1300:00+8se5137717 0.0 1011468
03:00+6ese38895 0.0 1009162
06:00+4ese389186 0.0 1007152
09:00+11ese58695 0.0 1005550
12:00+13se7771100 0.0 1004990
15:00+13se5678100 0.0 1003862
18:00+14ese2586100 0.2 1002327
21:00+13sse4994100 1.4 1002271
14 may, fri
fri1400:00+12sse4996100 0.0 1002262
03:00+11sse5997100 0.0 1003330
06:00+11ssw41095100 0.1 1003390
09:00+13ssw5786100 0.1 1004523
12:00+17ssw5762100 0.1 10051566
15:00+17sw696196 0.2 10061648
18:00+15sw67675 0.0 1007903
21:00+12sw4878100 0.0 1008400
15 may, sat
sat1500:00+10sw488358 0.0 1009399
03:00+10sw498798 0.0 1009415
06:00+9sw3887100 0.0 1010417
09:00+12wsw577685 0.0 1010696
12:00+11sw6882100 0.0 10111026
15:00+11wsw7108494 0.1 1012968
18:00+10w61087100 0.1 1013695
21:00+9w359544 0.1 1013117